"2016-05-18 00:00:00",1642971,1.575,95.8,3.235,0.235,7.801,102.1773,4.856,5.887,82.7,0,110,13.29,5.62,57.8
"2016-05-18 00:00:30",1642972,2.045,88.8,6.998,1.212,9.46,102.1758,4.852,6.021,82.8,0,110,13.25,5.62,50.8
"2016-05-18 00:01:00",1642973,2.733,95.4,8.96,1.5,10.05,102.1793,4.861,5.98,82.7,0,110,13.25,5.63,57.4
"2016-05-18 00:01:30",1642974,2.597,97.3,14.84,1.485,10.64,102.1784,4.859,6.083,82.8,0,110,13.25,5.63,59.3
"2016-05-18 00:02:00",1642975,2.485,115.8,15.53,1.241,9.46,102.1776,4.857,5.999,82.6,0,110,13.25,5.63,77.8
"2016-05-18 00:02:30",1642976,2.479,124.6,7.349,1.152,8.91,102.1754,4.851,6.037,82.7,0,110,13.24,5.62,86.6
"2016-05-18 00:03:00",1642977,2.765,115.4,5.634,1.397,8.74,102.1757,4.852,5.912,82.7,0,110,13.24,5.62,77.4
"2016-05-18 00:03:30",1642978,1.895,119.4,5.479,0.255,7.527,102.1763,4.853,5.848,82.7,0,110,13.29,5.62,81.4
"2016-05-18 00:04:00",1642979,2.734,141.4,12.56,1.456,9.24,102.1672,4.83,5.971,82.8,0,110,13.24,5.60,103.4
"2016-05-18 00:04:30",1642980,3.386,142.8,8.32,1.354,10.58,102.1596,4.811,6.037,82.8,0,110,13.25,5.58,104.8
"2016-05-18 00:05:00",1642981,3.223,142,7.468,1.417,10.07,102.1534,4.795,5.96,82.7,0,110,13.26,5.56,104.0
"2016-05-18 00:05:30",1642982,3.214,134.9,9.02,1.377,9.61,102.1546,4.798,6.018,82.8,0,110,13.26,5.57,96.9
"2016-05-18 00:06:00",1642983,3.66,128.5,8.64,1.287,10.03,102.1543,4.797,6.059,82.9,0,110,13.26,5.57,90.5
"2016-05-18 00:06:30",1642984,3.177,111,7.957,0.794,7.974,102.1529,4.794,5.835,82.7,0,110,13.26,5.56,73.0
"2016-05-18 00:07:00",1642985,2.347,114.4,5.844,0.457,7.771,102.1541,4.797,5.834,82.7,0,110,13.26,5.57,76.4
"2016-05-18 00:07:30",1642986,2.478,120.3,8.12,1.242,9.43,102.1558,4.801,5.977,82.8,0,110,13.26,5.57,82.3
"2016-05-18 00:08:00",1642987,3.846,127.5,7.82,1.263,11.43,102.1564,4.802,6.055,82.8,0,110,13.26,5.57,89.5
"2016-05-18 00:08:30",1642988,2.952,113.3,6.37,1.339,9.38,102.1581,4.807,5.97,82.7,0,110,13.26,5.58,75.3
"2016-05-18 00:09:00",1642989,3.581,125.1,8.63,1.298,10.76,102.1601,4.812,6.027,82.8,0,110,13.26,5.58,87.1
"2016-05-18 00:09:30",1642990,3.108,126.1,7.202,1.394,9.32,102.1593,4.81,5.929,82.7,0,110,13.26,5.58,88.1
"2016-05-18 00:10:00",1642991,2.229,132,3.47,0.167,7.585,102.1598,4.811,5.856,82.7,0,110,13.3,5.58,94.0
"2016-05-18 00:10:30",1642992,3.138,127.7,5.845,0.961,8.76,102.1604,4.813,5.928,82.8,0,110,13.26,5.58,89.7
"2016-05-18 00:11:00",1642993,3.486,128.1,7.215,1.269,9.63,102.1621,4.817,5.945,82.9,0,110,13.26,5.59,90.1
"2016-05-18 00:11:30",1642994,3.565,124.6,10.73,1.353,9.94,102.165,4.825,6.041,83,0,110,13.26,5.59,86.6
"2016-05-18 00:12:00",1642995,4.038,110.9,10.77,1.362,11.14,102.1633,4.82,6.038,83.1,0,110,13.26,5.59,72.9
"2016-05-18 00:12:30",1642996,4.099,116.4,5.951,1.424,10.6,102.1653,4.825,5.987,83.1,0,110,13.26,5.59,78.4
"2016-05-18 00:13:00",1642997,3.762,105.7,6.421,1.132,8.98,102.1673,4.831,5.91,83.1,0,110,13.26,5.60,67.7
"2016-05-18 00:13:30",1642998,2.58,110.5,9.48,0.287,7.719,102.1685,4.833,5.84,83,0,110,13.31,5.60,72.5
"2016-05-18 00:14:00",1642999,3.947,123.6,8.13,1.407,10.22,102.1688,4.834,5.964,83.2,0,110,13.26,5.60,85.6
"2016-05-18 00:14:30",1643000,3.317,114.1,8.46,1.223,9.66,102.1691,4.835,6.021,83.2,0,110,13.26,5.60,76.1
"2016-05-18 00:15:00",1643001,3.87,110,7.334,1.324,10.92,102.1688,4.834,5.976,83.1,0,110,13.26,5.60,72.0
"2016-05-18 00:15:30",1643002,3.053,109.6,6.516,1.116,9.47,102.1671,4.83,5.998,83.1,0,110,13.26,5.60,71.6
"2016-05-18 00:16:00",1643003,3.928,121.3,9.88,1.364,10.28,102.1615,4.815,6.002,83.1,0,110,13.26,5.58,83.3
"2016-05-18 00:16:30",1643004,2.849,116.4,5.162,1.073,8.67,102.1558,4.801,5.901,83,0,110,13.26,5.57,78.4
"2016-05-18 00:17:00",1643005,2.772,110.6,5.005,0.903,8.27,102.1544,4.797,5.817,82.9,0,110,13.25,5.57,72.6
"2016-05-18 00:17:30",1643006,3.059,114.8,8.03,1.211,9.24,102.1519,4.791,5.978,83,0,110,13.26,5.56,76.8
"2016-05-18 00:18:00",1643007,3.829,120.3,7.961,1.325,10.86,102.1479,4.781,5.97,83,0,110,13.25,5.55,82.3
"2016-05-18 00:18:30",1643008,2.69,106.4,6.702,1.223,9.4,102.1425,4.767,5.948,83,0,110,13.25,5.54,68.4
"2016-05-18 00:19:00",1643009,3.262,104.6,7.625,1.345,10.39,102.1434,4.769,5.95,83,0,110,13.25,5.54,66.6
"2016-05-18 00:19:30",1643010,3.172,126.9,10.22,1.254,9.76,102.1397,4.76,5.945,83,0,110,13.25,5.53,88.9
"2016-05-18 00:20:00",1643011,1.822,117,3.136,0.128,7.506,102.1366,4.752,5.827,82.8,0,110,13.3,5.52,79.0
"2016-05-18 00:20:30",1643012,2.108,122.3,8.47,1.034,8.33,102.1363,4.751,5.814,82.8,0,110,13.25,5.52,84.3
"2016-05-18 00:21:00",1643013,2.657,129.7,7.885,1.362,9.39,102.1363,4.751,5.887,83,0,110,13.26,5.52,91.7
"2016-05-18 00:21:30",1643014,2.598,127.2,9.43,1.331,9.82,102.1363,4.751,5.856,83,0,110,13.26,5.52,89.2
"2016-05-18 00:22:00",1643015,3.482,132.6,8.06,1.493,10.41,102.1363,4.751,5.944,83,0,110,13.26,5.52,94.6
"2016-05-18 00:22:30",1643016,3.183,132.9,6.483,1.301,9.27,102.1363,4.751,5.857,82.9,0,110,13.26,5.52,94.9
"2016-05-18 00:23:00",1643017,3.74,130.9,5.431,1.39,9.95,102.1363,4.751,5.926,83,0,110,13.26,5.52,92.9
"2016-05-18 00:23:30",1643018,3.018,127.1,3.35,0.765,8.02,102.1363,4.751,5.785,82.8,0,110,13.26,5.52,89.1
"2016-05-18 00:24:00",1643019,2.906,125.9,9.24,1.168,8.53,102.1363,4.751,5.796,82.8,0,110,13.26,5.52,87.9
"2016-05-18 00:24:30",1643020,3.369,134.1,5.778,1.355,10.81,102.1352,4.748,5.908,82.7,0,110,13.26,5.52,96.1
"2016-05-18 00:25:00",1643021,2.655,121.1,8.46,1.268,9.64,102.1298,4.735,5.885,82.5,0,110,13.26,5.50,83.1
"2016-05-18 00:25:30",1643022,3.18,120.2,6.538,1.434,9.86,102.1287,4.732,5.842,82.5,0,110,13.26,5.50,82.2
"2016-05-18 00:26:00",1643023,2.36,123.5,6.632,1.204,8.79,102.1273,4.728,5.824,82.5,0,110,13.26,5.50,85.5
"2016-05-18 00:26:30",1643024,2.388,124.4,6.109,1.3,9.18,102.1264,4.726,5.875,82.6,0,110,13.26,5.49,86.4
"2016-05-18 00:27:00",1643025,2.131,121.2,6.575,1.148,8.79,102.1242,4.72,5.768,82.5,0,110,13.26,5.49,83.2
"2016-05-18 00:27:30",1643026,1.703,121.5,1.69,0.196,7.545,102.1239,4.72,5.714,82.5,0,110,13.31,5.49,83.5
"2016-05-18 00:28:00",1643027,3.123,129,7.115,1.376,9.78,102.1219,4.714,5.82,82.6,0,110,13.26,5.48,91.0
"2016-05-18 00:28:30",1643028,2.945,130.5,5.813,1.297,9.88,102.1194,4.708,5.914,82.6,0,110,13.26,5.48,92.5
"2016-05-18 00:29:00",1643029,3.309,133.5,7.779,1.397,10.87,102.1191,4.707,5.873,82.5,0,110,13.26,5.48,95.5
"2016-05-18 00:29:30",1643030,2.489,126.5,6.739,1.263,9.4,102.1188,4.707,5.838,82.4,0,110,13.26,5.48,88.5
"2016-05-18 00:30:00",1643031,3.078,131.9,7.062,1.431,10.27,102.1179,4.704,5.889,82.4,0,110,13.26,5.47,93.9
"2016-05-18 00:30:30",1643032,2.096,125.9,5.589,0.739,7.804,102.1165,4.701,5.77,82.2,0,110,13.27,5.47,87.9
"2016-05-18 00:31:00",1643033,1.903,130.5,6.558,0.102,7.602,102.116,4.699,5.747,82.1,0,110,13.31,5.47,92.5
"2016-05-18 00:31:30",1643034,3.691,132.5,8.56,1.484,10.5,102.1174,4.703,5.88,82.2,0,110,13.26,5.47,94.5
"2016-05-18 00:32:00",1643035,3.114,131.6,7.405,1.118,9.4,102.1174,4.703,5.934,82.2,0,110,13.26,5.47,93.6
"2016-05-18 00:32:30",1643036,3.858,127.5,7.799,1.32,9.89,102.1162,4.7,5.803,82,0,110,13.26,5.47,89.5
"2016-05-18 00:33:00",1643037,3.678,129.2,9.13,1.35,10.52,102.114,4.694,5.942,82.1,0,110,13.26,5.46,91.2
"2016-05-18 00:33:30",1643038,3.227,131.6,5.451,1.251,9.57,102.1117,4.688,5.926,82,0,110,13.26,5.46,93.6
"2016-05-18 00:34:00",1643039,2.956,127.4,5.893,1.253,8.45,102.1083,4.68,5.708,81.7,0,110,13.26,5.45,89.4
"2016-05-18 00:34:30",1643040,3.185,127.6,7.393,1.283,9.28,102.1081,4.679,5.841,81.8,0,110,13.26,5.45,89.6
"2016-05-18 00:35:00",1643041,3.634,129.7,8.94,1.429,10.34,102.1052,4.672,5.872,81.8,0,110,13.26,5.44,91.7
"2016-05-18 00:35:30",1643042,3.615,128.7,9.83,1.368,10.3,102.103,4.666,5.866,81.7,0,110,13.26,5.43,90.7
"2016-05-18 00:36:00",1643043,3.478,131,5.983,1.379,9.59,102.1024,4.665,5.816,81.6,0,110,13.26,5.43,93.0
"2016-05-18 00:36:30",1643044,3.558,137.7,8.09,1.322,9.87,102.1024,4.665,5.894,81.6,0,110,13.26,5.43,99.7
"2016-05-18 00:37:00",1643045,3.194,134.8,6.919,1.352,9.45,102.1024,4.665,5.776,81.5,0,110,13.26,5.43,96.8
"2016-05-18 00:37:30",1643046,2.685,135.8,6.26,1.209,8.79,102.1024,4.665,5.71,81.3,0,110,13.26,5.43,97.8
"2016-05-18 00:38:00",1643047,3.214,133.8,7.613,1.37,10.18,102.1024,4.665,5.906,81.5,0,110,13.26,5.43,95.8
"2016-05-18 00:38:30",1643048,2.43,133.4,4.562,1.065,8.44,102.1024,4.665,5.708,81.2,0,110,13.26,5.43,95.4
"2016-05-18 00:39:00",1643049,2.953,141.8,7.879,1.369,9.87,102.1024,4.665,5.882,81.4,0,110,13.26,5.43,103.8
"2016-05-18 00:39:30",1643050,2.517,139.7,6.913,1.157,8.86,102.1024,4.665,5.787,81.2,0,110,13.26,5.43,101.7
"2016-05-18 00:40:00",1643051,3.175,139.7,8.09,1.395,10.3,102.1024,4.665,5.879,81.3,0,110,13.26,5.43,101.7
"2016-05-18 00:40:30",1643052,2.769,143.7,6.477,1.299,9.24,102.101,4.661,5.781,81.2,0,110,13.26,5.43,105.7
"2016-05-18 00:41:00",1643053,3.104,146.3,8.94,1.38,9.8,102.1016,4.663,5.821,81.2,0,110,13.27,5.43,108.3
"2016-05-18 00:41:30",1643054,2.95,139.6,6.476,1.324,9.43,102.1018,4.663,5.776,81.2,0,110,13.27,5.43,101.6
"2016-05-18 00:42:00",1643055,2.381,137.1,5.687,0.96,8.76,102.1001,4.659,5.79,81.2,0,110,13.27,5.43,99.1
"2016-05-18 00:42:30",1643056,3.049,135.2,6.669,1.277,9.39,102.1007,4.66,5.791,81.2,0,110,13.27,5.43,97.2
"2016-05-18 00:43:00",1643057,2.579,134.5,7.102,1.169,9,102.0999,4.658,5.784,81.2,0,110,13.27,5.43,96.5
"2016-05-18 00:43:30",1643058,2.694,133.3,9.79,1.235,9.19,102.0996,4.657,5.833,81.3,0,110,13.27,5.43,95.3
"2016-05-18 00:44:00",1643059,2.685,133.7,8.54,1.34,9.7,102.097,4.651,5.826,81.3,0,110,13.27,5.42,95.7
"2016-05-18 00:44:30",1643060,3.479,150.4,9.11,1.364,10.67,102.0962,4.649,5.835,81.2,0,110,13.27,5.42,112.4
"2016-05-18 00:45:00",1643061,2.608,137.9,5.921,1.121,9.09,102.0951,4.646,5.779,81.2,0,110,13.27,5.41,99.9
"2016-05-18 00:45:30",1643062,2.392,137.3,5.769,1.184,8.99,102.0917,4.637,5.748,81.3,0,110,13.27,5.41,99.3
"2016-05-18 00:46:00",1643063,3.177,145.1,6.252,1.437,10.4,102.0917,4.637,5.868,81.4,0,110,13.27,5.41,107.1
"2016-05-18 00:46:30",1643064,2.381,137.3,5.112,0.934,8.18,102.0925,4.639,5.691,81.2,0,110,13.27,5.41,99.3
"2016-05-18 00:47:00",1643065,2.74,133.2,7.387,1.239,8.98,102.0919,4.638,5.827,81.4,0,110,13.27,5.41,95.2
"2016-05-18 00:47:30",1643066,2.78,137.9,6.436,1.253,9.28,102.0956,4.647,5.871,81.5,0,110,13.27,5.42,99.9
"2016-05-18 00:48:00",1643067,3.464,146.8,7.651,1.338,10.59,102.0928,4.64,5.876,81.5,0,110,13.27,5.41,108.8
"2016-05-18 00:48:30",1643068,2.223,138.8,6.818,0.878,8.67,102.0951,4.646,5.788,81.5,0,110,13.27,5.41,100.8
"2016-05-18 00:49:00",1643069,2.694,138,6.628,1.295,9.06,102.0948,4.645,5.848,81.6,0,110,13.27,5.41,100.0
"2016-05-18 00:49:30",1643070,3.276,142.6,6.958,1.358,10.37,102.0945,4.644,5.847,81.6,0,110,13.27,5.41,104.6
"2016-05-18 00:50:00",1643071,1.618,134.2,3.719,0.275,7.427,102.0962,4.649,5.695,81.5,0,110,13.31,5.42,96.2
"2016-05-18 00:50:30",1643072,3.447,136.5,8.9,1.427,10.19,102.0948,4.645,5.862,81.7,0,110,13.26,5.41,98.5
"2016-05-18 00:51:00",1643073,3.588,146.9,9.43,1.4,10.76,102.097,4.651,5.906,81.8,0,110,13.26,5.42,108.9
"2016-05-18 00:51:30",1643074,3.229,145.4,7.831,1.329,9.3,102.0962,4.649,5.841,81.8,0,110,13.26,5.42,107.4
"2016-05-18 00:52:00",1643075,3.468,145.8,7.358,1.443,10.49,102.0976,4.653,5.824,81.9,0,110,13.26,5.42,107.8
"2016-05-18 00:52:30",1643076,2.848,139.2,6.166,1.327,9.17,102.0971,4.651,5.792,81.9,0,110,13.26,5.42,101.2
"2016-05-18 00:53:00",1643077,2.842,136.5,6.032,1.222,9.19,102.097,4.651,5.809,82,0,110,13.26,5.42,98.5
"2016-05-18 00:53:30",1643078,2.773,130.9,8,1.153,8.89,102.0993,4.657,5.794,82.1,0,110,13.26,5.43,92.9
"2016-05-18 00:54:00",1643079,2.645,133.8,7.323,1.323,9.08,102.0971,4.651,5.82,82.2,0,110,13.26,5.42,95.8
"2016-05-18 00:54:30",1643080,2.896,127.5,7.457,1.331,10.14,102.0971,4.651,5.908,82.4,0,110,13.26,5.42,89.5
"2016-05-18 00:55:00",1643081,3.261,132.6,6.058,1.452,9.94,102.0974,4.652,5.832,82.3,0,110,13.26,5.42,94.6
"2016-05-18 00:55:30",1643082,2.733,132.3,7.525,1.152,8.91,102.0968,4.65,5.756,82.3,0,110,13.27,5.42,94.3
"2016-05-18 00:56:00",1643083,3.231,139.1,8.46,1.305,9.68,102.0966,4.65,5.904,82.6,0,109.9,13.27,5.42,101.1
"2016-05-18 00:56:30",1643084,2.454,145.9,5.8,1.035,8.39,102.0966,4.65,5.72,82.4,0,110,13.27,5.42,107.9
"2016-05-18 00:57:00",1643085,2.937,137.5,6.788,1.182,8.85,102.0938,4.643,5.813,82.5,0,110,13.27,5.41,99.5
"2016-05-18 00:57:30",1643086,3.105,143.2,8.15,1.394,9.86,102.0935,4.642,5.817,82.6,0,110,13.27,5.41,105.2
"2016-05-18 00:58:00",1643087,2.903,142.5,8.38,1.375,10.15,102.0981,4.654,5.874,82.7,0,110,13.27,5.42,104.5
"2016-05-18 00:58:30",1643088,2.628,138.2,6.703,1.264,9.21,102.0961,4.649,5.808,82.7,0,110,13.27,5.42,100.2
"2016-05-18 00:59:00",1643089,2.75,135.1,6.166,1.167,9,102.0987,4.655,5.805,82.7,0,110,13.27,5.42,97.1
"2016-05-18 00:59:30",1643090,2.927,135.4,7.886,1.321,9.56,102.0988,4.655,5.895,82.9,0,110,13.27,5.42,97.4
"2016-05-18 01:00:00",1643091,2.629,133.1,4.191,1.185,8.49,102.099,4.656,5.715,82.7,0,110,13.27,5.42,95.1
"2016-05-18 01:00:30",1643092,2.769,135.2,6.393,1.23,9.13,102.099,4.656,5.863,82.9,0,110,13.27,5.42,97.2
"2016-05-18 01:01:00",1643093,3.471,135.7,7.385,1.398,10.02,102.0946,4.645,5.896,83,0,110,13.27,5.41,97.7
"2016-05-18 01:01:30",1643094,3.626,132.5,7.547,1.381,10.57,102.0881,4.628,5.932,83,0,110,13.27,5.40,94.5
"2016-05-18 01:02:00",1643095,2.842,119.6,5.982,1.164,8.66,102.0855,4.622,5.715,82.7,0,110,13.27,5.39,81.6
"2016-05-18 01:02:30",1643096,3.538,122.5,8.24,1.422,10.08,102.0872,4.626,5.897,82.9,0,110,13.27,5.39,84.5
"2016-05-18 01:03:00",1643097,3.477,117.3,8.87,1.397,9.78,102.0861,4.623,5.799,82.8,0,110,13.27,5.39,79.3
"2016-05-18 01:03:30",1643098,2.688,111.7,3.952,0.7,8.27,102.0881,4.628,5.76,82.8,0,110,13.27,5.40,73.7
"2016-05-18 01:04:00",1643099,3.801,111.5,8.38,1.43,10.46,102.0913,4.636,5.819,82.8,0,110,13.27,5.40,73.5
"2016-05-18 01:04:30",1643100,3.865,104.9,6.645,1.396,10.42,102.0904,4.634,5.79,82.8,0,110,13.27,5.40,66.9
"2016-05-18 01:05:00",1643101,3.729,106.5,7.041,1.386,10.59,102.0913,4.636,5.877,82.9,0,110,13.27,5.40,68.5
"2016-05-18 01:05:30",1643102,3.779,104.6,7.505,1.382,9.97,102.0921,4.638,5.785,82.7,0,110,13.27,5.41,66.6
"2016-05-18 01:06:00",1643103,3.551,106.6,6.942,1.271,9.24,102.0916,4.637,5.801,82.6,0,110,13.27,5.41,68.6
"2016-05-18 01:06:30",1643104,3.579,108.3,6.111,1.296,9.26,102.0905,4.634,5.726,82.4,0,110,13.27,5.40,70.3
"2016-05-18 01:07:00",1643105,3.879,113.6,7.251,1.362,9.82,102.0896,4.632,5.869,82.5,0,110,13.26,5.40,75.6
"2016-05-18 01:07:30",1643106,4.067,116.3,5.928,1.354,9.87,102.0857,4.622,5.764,82.3,0,110,13.26,5.39,78.3
"2016-05-18 01:08:00",1643107,3.583,116.4,7.645,1.262,9.49,102.0888,4.63,5.781,82.3,0,110,13.26,5.40,78.4
"2016-05-18 01:08:30",1643108,4.311,115.4,8.86,1.429,10.74,102.088,4.628,5.846,82.3,0,110,13.26,5.40,77.4
"2016-05-18 01:09:00",1643109,3.378,117.4,5.911,1.199,9.05,102.0905,4.634,5.752,82.3,0,110,13.27,5.40,79.4
"2016-05-18 01:09:30",1643110,3.54,116.8,6.677,1.22,9.5,102.0894,4.631,5.796,82.4,0,110,13.26,5.40,78.8
"2016-05-18 01:10:00",1643111,3.471,119.3,4.924,1.142,9.06,102.0897,4.632,5.742,82.4,0,110,13.27,5.40,81.3
"2016-05-18 01:10:30",1643112,3.253,119.7,6.278,1.28,9.64,102.0883,4.629,5.813,82.5,0,110,13.26,5.40,81.7
"2016-05-18 01:11:00",1643113,3.744,125.3,6.668,1.372,10.18,102.088,4.628,5.733,82.4,0,110,13.26,5.40,87.3
"2016-05-18 01:11:30",1643114,2.924,129.8,7.942,1.321,9.55,102.0895,4.632,5.8,82.5,0,110,13.27,5.40,91.8
"2016-05-18 01:12:00",1643115,3.338,131.9,6.473,1.44,10.21,102.0897,4.632,5.781,82.5,0,110,13.27,5.40,93.9
"2016-05-18 01:12:30",1643116,2.838,125.8,5.624,1.235,9.03,102.0889,4.63,5.777,82.5,0,110,13.27,5.40,87.8
"2016-05-18 01:13:00",1643117,2.967,129.3,5.538,1.284,8.83,102.0878,4.627,5.709,82.5,0,110,13.27,5.40,91.3
"2016-05-18 01:13:30",1643118,2.873,129.4,6.83,1.298,9.66,102.0858,4.622,5.821,82.6,0,110,13.27,5.39,91.4
"2016-05-18 01:14:00",1643119,3.137,136,7.245,1.381,10.1,102.0875,4.627,5.756,82.5,0,110,13.27,5.39,98.0
"2016-05-18 01:14:30",1643120,2.574,135.1,6.806,1.196,9.07,102.0875,4.627,5.734,82.5,0,110,13.27,5.39,97.1
"2016-05-18 01:15:00",1643121,3.186,140.4,7.149,1.395,10.12,102.0844,4.619,5.777,82.6,0,110,13.27,5.39,102.4
"2016-05-18 01:15:30",1643122,2.489,133.7,5.963,1.205,9.02,102.0887,4.63,5.753,82.6,0,110,13.27,5.40,95.7
"2016-05-18 01:16:00",1643123,2.317,132.5,6.56,1.192,9.08,102.0898,4.632,5.801,82.7,0,110,13.27,5.40,94.5
"2016-05-18 01:16:30",1643124,1.801,131.5,4.277,0.701,8.24,102.0924,4.639,5.683,82.7,0,110,13.27,5.41,93.5
"2016-05-18 01:17:00",1643125,2.28,137.4,6.733,1.22,9.03,102.0935,4.642,5.768,82.8,0,110,13.27,5.41,99.4
"2016-05-18 01:17:30",1643126,2.32,139.8,7.479,1.294,9.46,102.0949,4.646,5.741,82.9,0,110,13.27,5.41,101.8
"2016-05-18 01:18:00",1643127,2.114,136.5,7.672,1.192,9.19,102.0958,4.648,5.78,82.9,0,109.9,13.27,5.42,98.5
"2016-05-18 01:18:30",1643128,2.35,130.7,7.031,1.271,9.68,102.0972,4.651,5.82,83,0,110,13.28,5.42,92.7
"2016-05-18 01:19:00",1643129,2.478,128.7,6.449,1.354,9.31,102.0997,4.658,5.739,83,0,110,13.27,5.43,90.7
"2016-05-18 01:19:30",1643130,2.778,135.2,5.964,1.392,10.36,102.1014,4.662,5.814,83.2,0,110,13.27,5.43,97.2
"2016-05-18 01:20:00",1643131,1.758,138.8,3.214,0.087,7.515,102.1025,4.665,5.673,83.1,0,110,13.32,5.43,100.8
"2016-05-18 01:20:30",1643132,2.36,146.7,6.09,1.219,8.8,102.1031,4.666,5.789,83.3,0,109.9,13.28,5.43,108.7
"2016-05-18 01:21:00",1643133,2.648,141.9,6.976,1.241,9.05,102.1028,4.666,5.792,83.4,0,110,13.28,5.43,103.9
"2016-05-18 01:21:30",1643134,3.281,138.2,7.072,1.279,10.38,102.1028,4.666,5.827,83.5,0,109.9,13.28,5.43,100.2
"2016-05-18 01:22:00",1643135,2.512,131.4,4.835,1.212,9.4,102.1031,4.666,5.827,83.6,0,110,13.28,5.43,93.4
"2016-05-18 01:22:30",1643136,2.752,135.4,7.578,1.335,9.64,102.1031,4.666,5.823,83.6,0,110,13.27,5.43,97.4
"2016-05-18 01:23:00",1643137,3.282,137.8,7.503,1.408,10.12,102.1031,4.666,5.831,83.7,0,109.9,13.28,5.43,99.8
"2016-05-18 01:23:30",1643138,1.823,130,1.253,0.07,7.379,102.1028,4.666,5.681,83.6,0,110,13.32,5.43,92.0
"2016-05-18 01:24:00",1643139,2.433,133.6,6.357,1.09,8.73,102.1031,4.666,5.778,83.7,0,110,13.27,5.43,95.6
"2016-05-18 01:24:30",1643140,2.836,133.6,6.783,1.299,9.11,102.1031,4.666,5.806,83.8,0,110,13.27,5.43,95.6
"2016-05-18 01:25:00",1643141,3.385,135.9,7.142,1.372,10.36,102.1031,4.666,5.884,83.9,0,110,13.27,5.43,97.9
"2016-05-18 01:25:30",1643142,3.158,134.6,7.239,1.399,10.06,102.1031,4.666,5.818,83.8,0,109.9,13.27,5.43,96.6
"2016-05-18 01:26:00",1643143,3.074,135.5,6.697,1.431,9.95,102.1025,4.665,5.81,83.8,0,110,13.27,5.43,97.5
"2016-05-18 01:26:30",1643144,2.399,128.1,7.307,1.319,9.25,102.1028,4.666,5.816,83.9,0,109.9,13.27,5.43,90.1
"2016-05-18 01:27:00",1643145,1.654,120.1,2.976,0.054,7.574,102.0997,4.658,5.682,83.7,0,110,13.31,5.43,82.1
"2016-05-18 01:27:30",1643146,2.4,118.3,5.535,1.205,8.85,102.098,4.654,5.78,83.8,0,110,13.27,5.42,80.3
"2016-05-18 01:28:00",1643147,2.579,123,6.787,1.257,9.17,102.0952,4.646,5.861,83.9,0,110,13.27,5.41,85.0
"2016-05-18 01:28:30",1643148,3.142,122.9,7.842,1.329,9.85,102.0918,4.638,5.798,83.9,0,109.9,13.27,5.41,84.9
"2016-05-18 01:29:00",1643149,2.358,121.1,6.336,1.178,9.39,102.0873,4.626,5.793,83.9,0,109.9,13.27,5.39,83.1
"2016-05-18 01:29:30",1643150,2.896,124.3,7.01,1.363,9.84,102.0856,4.622,5.799,83.9,0,110,13.28,5.39,86.3
"2016-05-18 01:30:00",1643151,2.382,122.4,6.988,1.241,9.22,102.0845,4.619,5.797,83.8,0,109.9,13.28,5.39,84.4
"2016-05-18 01:30:30",1643152,1.697,122.5,2.158,0.131,7.587,102.0802,4.608,5.664,83.7,0,110,13.32,5.38,84.5
"2016-05-18 01:31:00",1643153,2.461,129.1,7.555,1.178,9.01,102.0819,4.612,5.763,83.7,0,110,13.28,5.38,91.1
"2016-05-18 01:31:30",1643154,2.544,131.6,6.656,1.29,9.53,102.0808,4.609,5.854,83.8,0,109.9,13.28,5.38,93.6
"2016-05-18 01:32:00",1643155,2.895,131.8,6.708,1.38,9.82,102.0774,4.601,5.722,83.6,0,109.9,13.28,5.37,93.8
"2016-05-18 01:32:30",1643156,3.182,134.4,7.373,1.364,10.95,102.0791,4.605,5.811,83.7,0,110,13.28,5.37,96.4
"2016-05-18 01:33:00",1643157,2.72,132.1,6.253,1.317,9.52,102.0734,4.591,5.718,83.6,0,110,13.28,5.36,94.1
"2016-05-18 01:33:30",1643158,3.112,134,7.325,1.358,9.78,102.0698,4.581,5.874,83.6,0,109.9,13.28,5.35,96.0
"2016-05-18 01:34:00",1643159,1.996,128.9,0.864,0.062,7.191,102.0692,4.58,5.628,83.3,0,109.9,13.32,5.35,90.9
"2016-05-18 01:34:30",1643160,2.464,130,5.069,1.111,8.45,102.0692,4.58,5.721,83.4,0,109.9,13.28,5.35,92.0
"2016-05-18 01:35:00",1643161,3.05,130.1,6.985,1.367,10.01,102.0692,4.58,5.732,83.3,0,109.9,13.28,5.35,92.1
"2016-05-18 01:35:30",1643162,2.599,127.4,6.543,1.283,9.63,102.0686,4.578,5.824,83.2,0,109.9,13.28,5.35,89.4
"2016-05-18 01:36:00",1643163,2.554,124.1,6.724,1.275,9.69,102.065,4.569,5.772,83,0,109.9,13.28,5.34,86.1
"2016-05-18 01:36:30",1643164,3.133,128.4,7.599,1.408,10.54,102.0624,4.563,5.753,82.9,0,109.9,13.28,5.33,90.4
"2016-05-18 01:37:00",1643165,2.306,120.3,5.986,1.227,8.98,102.0562,4.547,5.708,82.7,0,109.9,13.28,5.31,82.3
"2016-05-18 01:37:30",1643166,1.369,111.2,1.598,0.06,7.729,102.0556,4.545,5.591,82.5,0,109.9,13.32,5.31,73.2
"2016-05-18 01:38:00",1643167,1.716,115.1,5,1.039,8.29,102.0551,4.544,5.604,82.4,0,109.9,13.28,5.31,77.1
"2016-05-18 01:38:30",1643168,2.359,115.9,8.09,1.384,9.9,102.0528,4.538,5.792,82.6,0,109.9,13.28,5.31,77.9
"2016-05-18 01:39:00",1643169,1.477,113.3,4.842,0.977,8.34,102.0531,4.539,5.619,82.4,0,109.9,13.28,5.31,75.3
"2016-05-18 01:39:30",1643170,2.31,114.5,7.004,1.361,10.19,102.0531,4.539,5.761,82.6,0,109.9,13.28,5.31,76.5
"2016-05-18 01:40:00",1643171,1.345,109.6,4.25,0.849,8.56,102.052,4.536,5.701,82.5,0,109.9,13.28,5.30,71.6
"2016-05-18 01:40:30",1643172,2.549,114.1,7.642,1.361,10.44,102.0522,4.537,5.721,82.5,0,109.9,13.27,5.30,76.1
"2016-05-18 01:41:00",1643173,1.576,109.7,6.092,1.076,8.89,102.052,4.536,5.69,82.5,0,109.9,13.27,5.30,71.7
"2016-05-18 01:41:30",1643174,1.043,111.7,1.911,0.04,7.448,102.0503,4.532,5.581,82.3,0,109.9,13.32,5.30,73.7
"2016-05-18 01:42:00",1643175,1.428,114,5.35,0.992,8.32,102.0511,4.534,5.631,82.4,0,109.9,13.27,5.30,76.0
"2016-05-18 01:42:30",1643176,2.656,120,5.774,1.385,10.12,102.0517,4.535,5.716,82.4,0,109.9,13.27,5.30,82.0
"2016-05-18 01:43:00",1643177,1.288,121.3,5.523,0.056,7.511,102.0511,4.534,5.603,82.3,0,109.9,13.32,5.30,83.3
"2016-05-18 01:43:30",1643178,2.685,130,7.362,1.403,10.06,102.05,4.531,5.733,82.4,0,109.9,13.27,5.30,92.0
"2016-05-18 01:44:00",1643179,2.167,125.4,7.009,1.253,9.12,102.0486,4.527,5.778,82.5,0,109.9,13.27,5.30,87.4
"2016-05-18 01:44:30",1643180,2.988,128.9,7.678,1.36,10.55,102.0494,4.529,5.742,82.4,0,109.9,13.27,5.30,90.9
"2016-05-18 01:45:00",1643181,1.442,117.8,0.654,0.046,7.574,102.0503,4.532,5.637,82.2,0,109.9,13.32,5.30,79.8
"2016-05-18 01:45:30",1643182,1.723,122.5,5.482,0.941,7.977,102.0508,4.533,5.646,82.2,0,109.9,13.28,5.30,84.5
"2016-05-18 01:46:00",1643183,2.857,131.1,6.895,1.382,9.45,102.05,4.531,5.68,82.2,0,109.9,13.28,5.30,93.1
"2016-05-18 01:46:30",1643184,2.404,130.3,5.181,1.243,9.05,102.05,4.531,5.693,82.2,0,109.9,13.28,5.30,92.3
"2016-05-18 01:47:00",1643185,2.459,127,6.185,1.279,9.51,102.0514,4.534,5.701,82.2,0,109.9,13.28,5.30,89.0
"2016-05-18 01:47:30",1643186,3.211,130.7,6.766,1.405,10.7,102.0514,4.534,5.749,82.3,0,109.9,13.28,5.30,92.7
"2016-05-18 01:48:00",1643187,2.741,131.7,7.629,1.306,9.23,102.0525,4.537,5.719,82.3,0,109.9,13.28,5.31,93.7
"2016-05-18 01:48:30",1643188,2.964,133.7,6.945,1.224,9.02,102.0534,4.539,5.691,82.3,0,109.9,13.28,5.31,95.7
"2016-05-18 01:49:00",1643189,2.244,127.9,0.69,0.029,7.57,102.0556,4.545,5.623,82.3,0,109.9,13.32,5.31,89.9
"2016-05-18 01:49:30",1643190,3.83,136.3,6.699,1.387,10.56,102.0548,4.543,5.763,82.4,0,109.9,13.28,5.31,98.3
"2016-05-18 01:50:00",1643191,3.07,135.5,6.306,1.209,9.8,102.0542,4.542,5.824,82.6,0,109.9,13.28,5.31,97.5
"2016-05-18 01:50:30",1643192,3.8,136.3,6.838,1.422,10.54,102.0534,4.539,5.724,82.5,0,109.9,13.28,5.31,98.3
"2016-05-18 01:51:00",1643193,3.81,133.2,7.452,1.457,10.4,102.0514,4.534,5.763,82.6,0,109.9,13.28,5.30,95.2
"2016-05-18 01:51:30",1643194,3.652,133.6,7.361,1.379,10.25,102.0522,4.537,5.768,82.6,0,109.9,13.28,5.30,95.6